www.pogodaiklimat.ru

Погода и климат >> Архив погоды >> Австралия >> Западная Австралия >> Фицрой-Кроссинг


ПОГОДА в Фицрой-Кроссинге

  • Прогноз погоды в Фицрой-Кроссинге
  • Монитор погоды в Фицрой-Кроссинге

АРХИВ ПОГОДЫ в Фицрой-Кроссинге

Время (UTC), дата Ветер
(напр.,м/с)
 
Видим.   Явления Облачность Т
(С)
Тd
(С)
f
(%)
Тe
(С)
Тes
(С)
Комфортность P
(гПа)
Po
(гПа)
Тmin
(С)
Tmax
(С)
R
(мм)
R24
(мм)
S
(см)
22 8.07 штиль 0 н/о н/о +14.1 +2.4 45 +14 +14 1018.3 1004.9
00 9.07 В 3 н/о н/о +20.7 +3.4 32 +22 +22 комфорт 1019.4 1006.0
01 9.07 В 4 н/о н/о +24.7 +5.0 28 +24 +24 комфорт 1019.4 1006.0 +12.3
03 9.07 В 5 н/о н/о +28.8 +5.6 23 +28 +28 жарко 1018.0 1004.6
04 9.07 ЮВ 4 н/о н/о +29.2 +4.6 21 +28 +28 жарко 1017.0 1003.6
06 9.07 В 3 н/о н/о +30.8 +4.5 19 +29 +29 жарко 1015.1 1001.7
07 9.07 В 5 н/о н/о +30.4 +4.9 20 +29 +29 жарко 1014.9 1001.5
09 9.07 ЮВ 4 н/о н/о +28.2 +4.5 22 +27 +27 жарко 1015.5 1002.1
10 9.07 ЮВ 3 н/о н/о +24.9 +5.2 28 +24 +24 комфорт 1016.1 1002.7
12 9.07 Ю 3 н/о н/о +22.8 +5.3 32 +23 +23 комфорт 1017.1 1003.7
13 9.07 Ю 4 н/о н/о +22.4 +5.4 33 +23 +23 комфорт 1017.1 1003.7 +31.1
15 9.07 ЮВ 4 н/о н/о +21.9 +4.9 33 +22 +22 комфорт 1016.7 1003.3
16 9.07 ЮВ 3 н/о н/о +19.9 +4.4 36 +21 +21 комфорт 1017.0 1003.6
18 9.07 ЮЗ 2 н/о н/о +16.1 +3.5 43 +17 +17 1016.8 1003.4
19 9.07 штиль 0 н/о н/о +15.3 +3.1 44 +15 +15 1017.1 1003.7
21 9.07 Ю 2 н/о н/о +14.9 +3.7 47 +15 +15 1017.9 1004.5
22 9.07 штиль 0 н/о н/о +13.7 +2.9 48 +14 +14 1018.5 1005.1
00 10.07 Ю 2 н/о н/о +20.6 +3.8 33 +22 +22 комфорт 1019.8 1006.4
01 10.07 ЮВ 4 н/о н/о +25.4 +4.5 26 +25 +25 комфорт 1020.2 1006.8 +13.6
03 10.07 В 5 н/о н/о +29.2 +3.2 19 +27 +27 жарко 1018.8 1005.4
04 10.07 ЮВ 6 н/о н/о +29.8 +2.9 18 +28 +28 жарко 1017.7 1004.3
06 10.07 В 3 н/о н/о +30.0 +3.1 18 +28 +28 жарко 1015.9 1002.5
07 10.07 ЮВ 4 н/о н/о +30.0 +2.3 17 +28 +28 жарко 1015.6 1002.2
09 10.07 ЮВ 4 н/о н/о +28.3 +1.7 18 +26 +26 жарко 1016.3 1002.9
10 10.07 ЮВ 3 н/о н/о +25.1 +1.9 22 +24 +24 комфорт 1017.0 1003.6
12 10.07 ЮВ 4 н/о н/о +23.5 +0.6 22 +23 +23 комфорт 1018.1 1004.7
13 10.07 ЮВ 3 н/о н/о +21.3 +0.5 25 +21 +21 комфорт 1018.4 1005.0 +31.0
15 10.07 Ю 3 н/о н/о +17.5 +0.2 31 +18 +18 1018.4 1005.0
16 10.07 ЮВ 4 н/о н/о +20.0 +1.0 28 +20 +20 1018.6 1005.2
18 10.07 В 4 н/о н/о +20.4 -2.0 22 +20 +20 1018.4 1005.0
19 10.07 С 2 н/о н/о +14.4 -2.5 31 +14 +14 1018.6 1005.2
21 10.07 ЮВ 2 н/о н/о +14.2 -1.8 33 +14 +14 1019.1 1005.7
22 10.07 СЗ 2 н/о н/о +10.9 -2.5 39 +11 +11 1020.2 1006.8
00 11.07 ЮВ 1 н/о н/о +20.3 -3.4 20 +21 +21 комфорт 1021.7 1008.2
01 11.07 В 3 н/о н/о +24.6 -3.7 15 +23 +23 комфорт 1021.8 1008.3 +10.8
03 11.07 В 7 н/о н/о +29.9 -7.9 8 +26 +26 жарко 1020.3 1006.9
04 11.07 В 7 н/о н/о +30.0 -7.8 8 +26 +26 жарко 1019.0 1005.6
06 11.07 В 7 н/о н/о +30.6 -9.1 7 +27 +27 жарко 1017.3 1003.9
07 11.07 В 5 н/о н/о +30.4 -9.2 7 +26 +26 жарко 1016.9 1003.5
09 11.07 В 5 н/о н/о +28.1 -9.2 8 +24 +24 комфорт 1017.6 1004.2
10 11.07 ЮВ 3 н/о н/о +23.3 -7.7 12 +21 +21 комфорт 1018.2 1004.8
12 11.07 ЮВ 3 н/о н/о +20.8 -5.9 16 +21 +21 комфорт 1019.7 1006.3
13 11.07 ЮВ 4 н/о н/о +20.1 -4.9 18 +20 +20 1020.0 1006.6 +31.3
15 11.07 ЮВ 3 н/о н/о +18.9 -3.9 21 +19 +19 1020.1 1006.7
16 11.07 ЮВ 2 н/о н/о +16.1 -4.4 24 +17 +17 1020.1 1006.7
18 11.07 В 2 н/о н/о +15.1 -2.8 29 +15 +15 1019.1 1005.7
19 11.07 штиль 0 н/о н/о +11.8 -4.3 32 +12 +12 1019.1 1005.7
21 11.07 В 1 н/о н/о +13.2 -2.7 33 +14 +14 1019.2 1005.8
22 11.07 В 2 н/о н/о +11.8 -3.5 34 +11 +11 1019.6 1006.2
00 12.07 ЮВ 3 н/о н/о +19.9 -2.4 22 +20 +20 1020.9 1007.5
01 12.07 В 4 н/о н/о +24.6 -2.9 16 +23 +23 комфорт 1021.2 1007.7 +10.1
03 12.07 В 4 н/о н/о +29.8 -1.5 13 +27 +27 жарко 1019.6 1006.2
04 12.07 В 4 н/о н/о +30.7 +1.1 15 +28 +28 жарко 1018.3 1004.9
06 12.07 В 4 н/о н/о +31.1 +0.5 14 +28 +28 жарко 1016.4 1003.0
07 12.07 ЮВ 4 н/о н/о +30.8 +0.2 14 +28 +28 жарко 1016.0 1002.6
09 12.07 ЮВ 5 н/о н/о +28.7 +0.4 16 +26 +26 жарко 1016.3 1002.9
10 12.07 ЮВ 3 н/о н/о +25.1 +1.3 21 +24 +24 комфорт 1017.0 1003.6
12 12.07 ЮВ 3 н/о н/о +22.4 +0.3 23 +22 +22 комфорт 1018.6 1005.2
13 12.07 ЮВ 3 н/о н/о +20.8 +0.1 25 +21 +21 комфорт 1019.0 1005.6 +31.9
15 12.07 В 3 н/о н/о +19.3 -1.2 25 +20 +20 1019.2 1005.8
16 12.07 ЮВ 5 н/о н/о +21.4 -2.5 20 +21 +21 комфорт 1019.0 1005.6
18 12.07 В 5 н/о н/о +20.8 -4.4 18 +20 +20 1018.8 1005.4
19 12.07 В 4 н/о н/о +19.3 -4.2 20 +19 +19 1018.8 1005.4
21 12.07 Ю 3 н/о н/о +14.4 -3.9 28 +14 +14 1019.5 1006.1
22 12.07 ЮВ 4 н/о н/о +16.7 -3.9 24 +16 +16 1020.1 1006.7
00 13.07 В 5 н/о н/о +22.2 -4.0 17 +21 +21 комфорт 1021.3 1007.8
01 13.07 В 6 н/о н/о +24.8 -5.5 13 +23 +23 комфорт 1021.5 1008.0 +13.5
03 13.07 В 7 н/о н/о +28.7 -5.9 10 +25 +25 комфорт 1020.0 1006.6
04 13.07 В 7 н/о н/о +29.9 -5.0 10 +26 +26 жарко 1018.9 1005.5
06 13.07 В 7 н/о н/о +30.6 -4.4 10 +27 +27 жарко 1016.9 1003.5
07 13.07 В 7 н/о н/о +30.7 -4.4 10 +27 +27 жарко 1016.6 1003.2
09 13.07 В 5 н/о н/о +28.2 -7.6 9 +25 +25 комфорт 1016.9 1003.5
10 13.07 ЮВ 3 н/о н/о +24.7 -8.9 10 +22 +22 комфорт 1017.5 1004.1
12 13.07 ЮВ 4 н/о н/о +21.2 -7.3 14 +20 +20 1019.0 1005.6
13 13.07 ЮВ 3 н/о н/о +19.7 -6.8 16 +20 +20 1019.4 1006.0 +31.5
15 13.07 ЮВ 4 н/о н/о +20.3 -6.3 16 +20 +20 1019.4 1006.0
18 13.07 ЮВ 4 н/о н/о +18.6 -6.2 18 +18 +18 1019.1 1005.7
19 13.07 ЮВ 4 н/о н/о +17.9 -6.0 19 +18 +18 1019.2 1005.8
21 13.07 Ю 3 н/о н/о +14.4 -5.3 25 +14 +14 1020.0 1006.6
22 13.07 ЮВ 3 н/о н/о +13.8 -4.4 28 +13 +13 1020.6 1007.2
00 14.07 В 5 н/о н/о +20.2 -2.8 21 +20 +20 1022.1 1008.6
01 14.07 В 7 н/о н/о +22.4 -1.6 20 +21 +21 комфорт 1022.1 1008.6 +13.7
03 14.07 В 7 н/о н/о +25.6 -0.5 18 +24 +24 комфорт 1020.8 1007.4
04 14.07 В 7 н/о н/о +27.0 -0.1 17 +25 +25 комфорт 1019.5 1006.1
06 14.07 ЮВ 6 н/о н/о +27.8 -1.2 15 +25 +25 комфорт 1017.5 1004.1
07 14.07 ЮВ 7 н/о н/о +27.9 -1.1 15 +25 +25 комфорт 1017.1 1003.7
09 14.07 ЮВ 5 н/о н/о +25.5 -2.1 16 +23 +23 комфорт 1017.5 1004.1
10 14.07 ЮВ 5 н/о н/о +23.9 -2.6 17 +22 +22 комфорт 1018.0 1004.6
12 14.07 ЮВ 4 н/о н/о +20.3 -3.4 20 +20 +20 1018.9 1005.5
13 14.07 ЮВ 3 н/о н/о +17.7 -3.7 23 +18 +18 1019.4 1006.0 +28.3
15 14.07 ЮВ 5 н/о н/о +19.0 -4.4 20 +19 +19 1019.9 1006.5
16 14.07 ЮВ 5 н/о н/о +18.0 -4.6 21 +18 +18 1020.3 1006.9
18 14.07 ЮВ 4 н/о н/о +15.0 -4.3 26 +14 +14 1020.1 1006.7
19 14.07 ЮВ 4 н/о н/о +14.6 -4.7 26 +14 +14 1020.0 1006.6
21 14.07 В 3 н/о н/о +13.2 -4.9 28 +12 +12 1020.1 1006.7
22 14.07 В 3 н/о н/о +11.6 -4.9 31 +10 +10 1020.4 1007.0
00 15.07 В 4 н/о н/о +17.0 -4.3 23 +17 +17 1021.5 1008.0
01 15.07 В 7 н/о н/о +21.0 -5.7 16 +20 +20 1021.4 1007.9 +11.7
03 15.07 В 5 н/о н/о +23.7 -6.3 13 +22 +22 комфорт 1019.8 1006.4
04 15.07 В 5 н/о н/о +24.5 -7.9 11 +22 +22 комфорт 1018.7 1005.3
06 15.07 ЮВ 5 н/о н/о +25.2 -9.9 9 +22 +22 комфорт 1016.7 1003.3
07 15.07 ЮВ 5 н/о н/о +25.7 -9.5 9 +23 +23 комфорт 1016.1 1002.7
09 15.07 ЮВ 5 н/о н/о +24.0 -9.5 10 +22 +22 комфорт 1016.6 1003.2
10 15.07 ЮВ 4 н/о н/о +21.5 -9.1 12 +20 +20 1017.0 1003.6
12 15.07 ЮВ 3 н/о н/о +17.7 -7.6 17 +18 +18 1018.5 1005.1
13 15.07 ЮВ 5 н/о н/о +18.5 -7.8 16 +18 +18 1018.8 1005.4 +26.7
15 15.07 ЮВ 5 н/о н/о +18.2 -6.5 18 +18 +18 1018.8 1005.4
16 15.07 ЮВ 5 н/о н/о +17.3 -7.2 18 +17 +17 1018.8 1005.4
18 15.07 ЮВ 3 н/о н/о +14.0 -6.2 24 +13 +13 1018.7 1005.3
19 15.07 Ю 3 н/о н/о +11.3 -6.5 28 +10 +10 1018.8 1005.4
21 15.07 штиль 0 н/о н/о +9.4 -6.0 33 +9 +9 1019.0 1005.6

 

Местоположение метеостанции Фицрой-Кроссинг (Западная Австралия, Австралия): широта -18.18 долгота 125.56 высота над уровнем моря 115 м.

В архиве по умолчанию представлена погода в Фицрой-Кроссинге за последнюю неделю. Архивные данные за месяц целиком и за предыдущие месяцы, начиная с января 2011 года, Вы можете получить, выбрав интересующий диапазон дат из раскрывающегося списка и нажав кнопку "Ввод!".


*Определитесь, кто Вы:
робот инопланетянин человек

Внимание! Время в таблицах - всемирное. Для получения местного времени необходимо прибавить поправку, которая равна 8 ч.

Смотрите также архив погоды в соседних городах и на ближайших метеорологических станциях:

Погода на Базе ВВС Curtin (Западная Австралия, Австралия) (196 км)
Погода в Дерби (Северная территория, Австралия) (221 км)
Погода в Холс Крик (Западная Австралия, Австралия) (222 км)
Погода в Робак Запад (Западная Австралия, Австралия) (344 км)
Погода в Аэропорту Аргайл (Западная Австралия, Австралия) (352 км)
Погода в Бруме (Западная Австралия, Австралия) (353 км)
Погода на Острове Адель (Западная Австралия, Австралия) (392 км)
Погода в Уиндеме (Западная Австралия, Австралия) (406 км)
Погода в Кунунарре (Западная Австралия, Австралия) (428 км)
Погода в Калумбуру (Западная Австралия, Австралия) (447 км)

Пояснения к столбцам:

Ветер - указаны скорость ветра в м/с - средняя за 10 мин, порывы в срок и между сроками (в фигурных скобках) и направление, откуда дует ветер: С - северный, СВ - северо-восточный, В - восточный, ЮВ - юго-восточный, Ю - южный, ЮЗ - юго-западный, З - западный, СЗ - северо-западный.
Видимость - горизонтальная дальность видимости в метрах или километрах. При видимости от 1 до 10 км при отсутствии осадков обычно наблюдается дымка, при ухудшении видимости до 1 км и менее - туман. В сухую погоду видимость может ухудшаться дымом, пылью или мглою.
Явления - указаны атмосферные явления, наблюдавшиеся в срок или в последний час перед сроком; фигурными скобками обозначены явления, наблюдавшиеся между сроками (за 1-3 часа до срока); квадратными скобками обозначены град или гололедные отложения с указанием их диаметра в мм.
Облачность - указаны через наклонную черту общая и нижняя облачность в баллах и высота нижней границы облаков в метрах; квадратными скобками обозначены формы облаков: Ci - перистые, Cs - перисто-слоистые, Cc - перисто-кучевые, Ac - высококучевые, As - высокослоистые, Sc - слоисто-кучевые, Ns - слоисто-дождевые, Cu - кучевые, Cb - кучево-дождевые. Подробнее классификацию облаков см. в Атласе облаков (PDF).
T - Температура воздуха - температура, измеренная на высоте 2 м над землей.
Td - Температура точки росы - температура, при понижении до которой содержащийся в воздухе водяной пар достигнет насыщения.
f - Относительная влажность воздуха - влажноcть воздуха, измеренная на высоте 2 м над землей.
Te - Эффективная температура - температура, которую ощущает одетый по сезону человек в тени. Характеристика душности погоды. При расчете учитывается влияние влажности воздуха и скорости ветра на теплоощущения человека.
Tes - Эффективная температура на солнце - температура, которую ощущает человек, с поправкой на солнечный нагрев. Характеристика знойности погоды. Зависит от высоты солнца над горизонтом, облачности и скорости ветра. Ночью, в пасмурную погоду, а также при ветре 12 м/с и более поправка равна нулю.
P - Атмосферное давление - приведенное к уровню моря атмосферное давление.
Po - Атмосферное давление - измеренное на уровне метеостанции атмосферное давление.
Tmin - Минимальная температура - минимум температуры воздуха на высоте 2 м над землей.
Tmax - Максимальная температура - максимум температуры воздуха на высоте 2 м над землей.
R - Количество осадков - Количество выпавших осадков за период времени, мм. При наведении курсора мыши на число - период времени, за который выпало указанное количество осадков.
R24 - Количество осадков - Количество выпавших осадков за 24 часа, мм.
S - Снежный покров - Высота снежного покрова, см. При наведении курсора мыши на число - состояние снежного покрова и степень покрытия местности в баллах.